Sierra Vista, AZ

5:43 PM MST on August 27, 2016 (GMT -0700)
Sierra Vista Municipal-Libby Army Air Field

Weather History for KFHU - May, 2013

Change the Weather History Date:

Wednesday, May 1, 2013

  Actual Average Record
Temperature  
Mean Temperature 70 °F -  
Max Temperature 82 °F 78 °F 88 °F (1986)
Min Temperature 57 °F 56 °F 43 °F (2011)
Cooling Degree Days 4    
Growing Degree Days 20 (Base 50)    
Moisture  
Dew Point 14 °F    
Average Humidity 12    
Maximum Humidity 22    
Minimum Humidity 6    
Precipitation  
Precipitation 0.00 in - - ()
Sea Level Pressure  
Sea Level Pressure 29.89 in    
Wind  
Wind Speed 10 mph (WSW)    
Max Wind Speed 17 mph    
Max Gust Speed 28 mph    
Visibility 10 miles    
Events      
Averages and records for this station are not official NWS values.
T = Trace of Precipitation, MM = Missing Value Source: NWS Daily Summary

Daily Weather History Graph

Daily Weather History Graph

Search for Another Location

Airport or City:

Trip Planner

Search our weather history database for the weather conditions in past years. The results will help you decide how hot, cold, wet, or windy it might be!

Date:

Astronomy

May. 01, 2013 Rise Set
Actual Time 5:35 AM MST 7:01 PM MST
Civil Twilight 5:09 AM MST 7:27 PM MST
Nautical Twilight 4:39 AM MST 7:58 PM MST
Astronomical Twilight 4:06 AM MST 8:30 PM MST
Moon 12:12 AM MST (5/1) 11:17 AM MST (5/1)
Length of Visible Light 14h 17m
Length of Day
13h 25m
Waning Gibbous, 58% of the Moon is Illuminated
May 1
Waning Gibbous
May 2
Last Quarter
May 9
New
May 17
First Quarter
May 24
Full

Hourly Weather History & Observations

Time (MST) Temp. Dew Point Humidity Pressure Visibility Wind Dir Wind Speed Gust Speed Precip Events Conditions
12:55 AM 69.8 °F 19.4 °F 15% 29.77 in 10.0 mi WSW 16.1 mph - N/A   Clear
1:55 AM 66.2 °F 21.2 °F 18% 29.78 in 10.0 mi Variable 6.9 mph - N/A   Clear
2:55 AM 68.0 °F 19.4 °F 16% 29.78 in 10.0 mi Variable 6.9 mph - N/A   Clear
3:55 AM 59.0 °F 19.4 °F 22% 29.82 in 10.0 mi WNW 6.9 mph - N/A   Clear
4:55 AM 64.4 °F 17.6 °F 16% 29.82 in 10.0 mi SSW 8.1 mph - N/A   Clear
5:55 AM 57.2 °F 17.6 °F 21% 29.86 in 10.0 mi Calm Calm - N/A   Partly Cloudy
6:55 AM 66.2 °F 17.6 °F 15% 29.89 in 10.0 mi South 11.5 mph - N/A   Partly Cloudy
7:55 AM 66.2 °F 17.6 °F 15% 29.91 in 10.0 mi Calm Calm - N/A   Partly Cloudy
8:55 AM 73.4 °F 17.6 °F 12% 29.91 in 10.0 mi Variable 3.5 mph - N/A   Partly Cloudy
9:55 AM 75.2 °F 15.8 °F 11% 29.91 in 10.0 mi Calm Calm - N/A   Partly Cloudy
10:55 AM 77.0 °F 15.8 °F 10% 29.91 in 10.0 mi NNE 6.9 mph - N/A   Partly Cloudy
11:55 AM 78.8 °F 12.2 °F 8% 29.88 in 10.0 mi West 15.0 mph 25.3 mph N/A   Partly Cloudy
12:55 PM 80.6 °F 12.2 °F 8% 29.88 in 10.0 mi West 13.8 mph 19.6 mph N/A   Partly Cloudy
1:55 PM 82.4 °F 10.4 °F 7% 29.88 in 10.0 mi WNW 8.1 mph 20.7 mph N/A   Partly Cloudy
2:55 PM 82.4 °F 12.2 °F 7% 29.87 in 10.0 mi West 11.5 mph 27.6 mph N/A   Partly Cloudy
3:55 PM 82.4 °F 6.8 °F 6% 29.88 in 10.0 mi West 13.8 mph - N/A   Partly Cloudy
4:55 PM 80.6 °F 8.6 °F 6% 29.89 in 10.0 mi West 13.8 mph 21.9 mph N/A   Partly Cloudy
5:55 PM 80.6 °F 10.4 °F 7% 29.90 in 10.0 mi WSW 17.3 mph 20.7 mph N/A   Partly Cloudy
6:55 PM 77.0 °F 12.2 °F 9% 29.91 in 10.0 mi WSW 12.7 mph - N/A   Clear
7:55 PM 69.8 °F 10.4 °F 10% 29.95 in 10.0 mi WSW 9.2 mph - N/A   Clear
8:55 PM 69.8 °F 10.4 °F 10% 29.96 in 10.0 mi WSW 10.4 mph - N/A   Clear
9:55 PM 66.2 °F 12.2 °F 12% 29.98 in 10.0 mi WSW 12.7 mph - N/A   Clear
10:55 PM 64.4 °F 14.0 °F 14% 29.98 in 10.0 mi West 9.2 mph - N/A   Clear
11:55 PM 64.4 °F 15.8 °F 15% 29.99 in 10.0 mi WSW 12.7 mph - N/A   Clear